#timestamp,LO_Frequency,Hit,StdDev 
1544817615.1,286046998.5,N
1544817616.0,286046998.5,N
1544817635.8,286046998.7,N
1544817655.6,286046998.1,N
1544817675.5,286046998.7,N
1544817695.3,286047000.9,N
1544817715.2,286047001.2,N
1544817735.9,286046996.6,N
1544817755.7,286046998.9,N
1544817775.6,286046999.1,N
1544817795.4,286046998.5,N
1544817815.3,286047000.3,N
1544817835.1,286046998.5,N
1544817836.0,286046998.5,N
1544817855.8,286046998.8,N
1544817875.7,286047001.0,N
1544817895.5,286046999.9,N
1544817915.3,286047000.4,N
1544817935.2,286046998.1,N
1544817955.0,286046998.7,N
1544817955.9,286046998.7,N
1544817975.8,286046999.3,N
1544817995.6,286046998.5,N
1544818015.4,286046998.2,N
1544818035.3,286047000.6,N
1544818055.1,286047000.3,N
1544818075.8,286047001.0,N
1544818095.7,286047001.1,N
1544818115.5,286047000.4,N
1544818135.4,286047000.1,N
1544818155.2,286046999.8,N
1544818175.0,286046998.1,N
1544818175.9,286046998.1,N
1544818195.8,286047001.0,N
1544818215.6,286047001.1,N
1544818235.4,286047001.1,N
1544818255.3,286046998.6,N
1544818275.1,286047001.2,N
1544818295.9,286046998.5,N
1544818315.7,286047000.6,N
1544818335.5,286047000.6,N
1544818355.4,286047000.9,N
1544818375.2,286047000.7,N
1544818395.1,286047000.4,N
1544818396.0,286047000.4,N
1544818415.8,286047000.1,N
1544818435.6,286046999.8,N
1544818455.5,286046998.1,N
1544818475.3,286047001.1,N
1544818495.2,286047001.0,N
1544818515.9,286046999.5,N
1544818535.7,286046998.8,N
1544818555.6,286046998.5,N
1544818575.4,286047000.5,N
1544818595.2,286046998.1,N
1544818615.1,286046998.1,N
1544818616.0,286046998.1,N
1544818635.8,286047001.2,N
1544818655.7,286047001.0,N
1544818675.5,286047000.5,N
1544818695.3,286047000.2,N
1544818715.2,286047002.5,N
1544818735.0,286047002.8,N
1544818735.9,286047002.8,N
1544818755.7,286047002.0,N
1544818775.6,286047002.0,N
1544818795.4,286046999.7,N
1544818815.3,286047002.0,N
1544818835.1,286047004.3,Y
1544818836.0,286047004.3,P
1544818855.8,286047003.9,N
1544818875.7,286047001.3,N
1544818895.5,286047001.6,N
1544818915.3,286047002.5,N
1544818935.2,286046999.8,N
1544818955.0,286047001.9,N
1544818955.9,286047001.9,N
1544818975.8,286047002.1,N
1544818995.6,286047002.0,N
1544819015.4,286047001.3,N
1544819035.3,286047004.1,Y
1544819055.1,286047000.2,P
1544819075.9,286047000.8,N
1544819095.7,286047000.6,N
1544819115.5,286047000.1,N
1544819135.4,286047002.4,Y
1544819155.2,286047000.3,P
1544819175.0,286047002.3,P
1544819175.9,286047002.3,N
1544819195.8,286047000.2,N
1544819215.6,286046998.3,N
1544819235.5,286047000.8,N
1544819255.3,286047000.6,N
1544819275.1,286047000.2,N
1544819295.9,286047000.1,N
1544819315.7,286047002.6,N
1544819335.6,286047002.1,N
1544819355.4,286047002.1,N
1544819375.2,286047001.4,N
1544819395.1,286047000.2,N
1544819396.0,286047000.2,N
1544819415.8,286047002.6,N
1544819435.6,286047002.7,N
1544819455.5,286047002.7,N
1544819475.3,286047000.0,N
1544819495.2,286047002.8,N
1544819515.9,286047000.4,N
1544819535.7,286046998.7,N
1544819555.6,286047001.2,N
1544819575.4,286046998.3,N
1544819595.2,286046996.6,N
1544819615.1,286046998.3,N
1544819616.0,286046998.3,N
1544819635.8,286046999.0,N
1544819655.7,286047001.2,N
1544819675.5,286046998.6,N
1544819695.3,286046998.4,N
1544819715.2,286047000.8,N
1544819735.0,286046998.9,N
1544819735.9,286046998.9,N
1544819755.8,286046999.1,N
1544819775.6,286046999.3,N
1544819795.4,286047001.1,N
1544819815.7,286046998.7,N
1544819835.5,286046997.3,N
1544819855.3,286046996.8,N
1544819875.2,286046997.1,N
1544819895.0,286046996.5,N
1544819895.9,286046996.5,N
1544819915.8,286046998.0,N
1544819935.6,286046995.0,N
1544819955.4,286046994.9,N
1544819975.3,286046994.9,N
1544819995.1,286046995.3,N
1544820015.8,286046996.1,N
1544820035.7,286046996.0,N
1544820055.5,286046993.3,Y
1544820075.4,286046997.1,P
1544820095.2,286046999.1,N
1544820115.0,286046998.8,N
1544820115.9,286046998.8,N
1544820135.8,286046999.5,N
1544820155.6,286046996.5,Y
1544820175.5,286046998.5,P
1544820195.3,286046998.1,P
1544820215.1,286047000.8,P
1544820235.9,286047000.8,N
1544820255.7,286047000.9,N
1544820275.5,286046999.0,N
1544820295.4,286046997.0,N
1544820315.2,286046999.0,N
1544820335.1,286046999.1,N
1544820336.0,286046999.1,N
1544820355.8,286046996.6,N
1544820375.6,286046999.0,N
1544820395.5,286046998.9,N
1544820415.3,286047000.7,N
1544820435.1,286047001.2,N
1544820455.9,286046998.8,N
1544820475.7,286046996.8,N
1544820495.6,286046997.3,N
1544820515.4,286046994.9,Y
1544820535.2,286046999.1,P
1544820555.1,286046998.3,P
1544820556.0,286046998.3,P
1544820575.8,286046999.3,N
1544820595.7,286046996.5,Y
1544820615.5,286047000.9,P
1544820635.3,286046998.1,N
1544820655.2,286046998.1,N
1544820675.9,286046998.4,N
1544820695.7,286046996.5,Y
1544820715.6,286046998.2,P
1544820735.4,286046998.6,P
1544820755.3,286046999.4,N
1544820775.1,286047000.3,N
1544820776.0,286047000.3,N
1544820795.8,286047002.7,Y
1544820815.7,286047002.6,P
1544820835.5,286047001.7,N
1544820855.3,286047004.1,N
1544820875.2,286047004.2,N
1544820895.0,286047003.4,N
1544820895.9,286047003.4,N
1544820915.8,286047001.5,N
1544820935.6,286047002.1,N
1544820955.4,286047001.8,N
1544820975.3,286047001.4,N
1544820995.1,286047004.4,Y
1544821015.9,286046998.1,P
1544821035.7,286046998.7,N
1544821055.5,286047001.0,N
1544821075.4,286046996.6,N
1544821095.2,286046996.7,N
1544821115.0,286046999.4,N
1544821115.9,286046999.4,N
1544821135.8,286046996.6,N
1544821155.6,286046999.2,N
1544821175.5,286046999.2,N
1544821195.3,286046996.7,N
